[[{"header":{"parameterUnit":"m.s-1","parameterCategory":1,"la1":30.2991,"la2":30.254,"lo1":-89.0895,"lo2":-89.0444,"dy":0.0017,"dx":0.0017,"nx":28,"ny":28,"refTime":"2024-11-28T03:00:00:Z","depth":0,"parameterNumber":2,"parameterNumberName":"U-component_of_WINDS"},"data":[0,0,0,0,0,0,0,0,0,0,0,0,0,0,0,0,0,0,0,0,0,0,0,0,0,0,0,0,0,0,0,0,0,0,0,0,0,0,0,0,0,0,0,0,0,0,0,0,0,0,0,0,0,0,0,0,0,0,-1.2424,-1.2425,0,-1.2502,-1.2503,-1.2504,-1.2485,-1.2483,-1.2482,-1.248,-1.256,-1.2564,-1.2567,0,0,0,0,0,0,0,0,0,0,0,0,0,-1.2257,-1.2261,-1.2424,-1.2425,-1.2426,-1.2502,-1.2503,-1.2504,-1.2485,-1.2483,-1.2481,-1.2479,-1.2559,-1.2563,-1.2568,0,0,0,0,0,0,0,0,0,0,0,0,0,-1.2332,-1.2262,-1.2424,-1.2426,-1.2427,-1.2502,-1.2503,-1.2505,-1.2485,-1.2483,-1.2481,-1.2479,-1.2558,-1.2563,-1.2568,-1.2647,0,0,-1.2585,-1.2587,0,0,0,0,0,0,0,0,-1.2328,-1.2338,-1.2424,-1.2426,-1.2427,-1.2481,-1.2474,-1.2552,-1.2486,-1.2463,-1.248,-1.2477,-1.2536,-1.2543,-1.2563,-1.2651,-1.2654,-1.2585,-1.2588,-1.2591,-1.2592,0,0,0,0,0,0,0,-1.2323,-1.2335,-1.2455,-1.2426,-1.2427,-1.2422,-1.243,-1.2489,-1.2511,-1.2465,-1.2464,-1.2473,-1.2536,-1.2558,-1.2564,-1.2655,-1.2585,-1.259,-1.2593,-1.2595,-1.2811,-1.2814,0,0,0,0,0,0,-1.2317,-1.2331,-1.2453,-1.2457,-1.2371,-1.2427,-1.2436,-1.2466,-1.2511,-1.2515,-1.2475,-1.2472,-1.255,-1.2558,-1.2567,-1.2663,-1.2591,-1.2596,-1.2599,-1.2809,-1.2812,-1.2815,0,0,0,0,0,0,-1.2313,-1.2328,-1.245,-1.2394,-1.2409,-1.2432,-1.2466,-1.2469,-1.249,-1.2518,-1.2522,-1.2493,-1.2548,-1.256,-1.2627,-1.2665,-1.2598,-1.2603,-1.2806,-1.281,-1.2813,-1.2854,0,0,0,0,0,0,-1.2308,-1.2327,-1.2357,-1.2395,-1.2412,-1.2509,-1.2469,-1.2472,-1.25,-1.2496,-1.2536,-1.254,-1.2547,-1.2619,-1.2633,-1.2671,-1.2607,-1.2803,-1.2808,-1.2812,-1.2849,-1.2859,-1.2867,0,0,0,0,0,-1.2303,-1.2366,-1.2359,-1.2374,-1.2451,-1.2511,-1.2521,-1.2527,-1.2503,-1.2534,-1.2551,-1.2539,-1.2658,-1.2626,-1.2641,-1.2682,-1.28,-1.2806,-1.2812,-1.2845,-1.2857,-1.2866,0,0,0,0,0,0,-1.2333,-1.2371,-1.2364,-1.2441,-1.2473,-1.2508,-1.2547,-1.2539,-1.2579,-1.2574,-1.258,-1.259,-1.2659,-1.2677,-1.2641,-1.276,-1.2726,-1.2735,-1.2746,-1.2757,-1.2766,-1.2761,-1.2611,0,0,0,0,0,-1.2348,-1.2394,-1.2425,-1.249,-1.2506,-1.2524,-1.255,-1.2552,-1.2586,-1.2599,-1.2622,-1.2655,-1.2699,-1.2729,-1.2772,-1.2851,-1.2859,-1.2886,-1.2895,-1.2902,-1.291,-1.2953,-1.2965,-1.2834,-1.2834,-1.2833,0,0,-1.2381,-1.2407,-1.2436,-1.2496,-1.2521,-1.2569,-1.2535,-1.2587,-1.2622,-1.2607,-1.2673,-1.269,-1.2727,-1.2801,-1.2834,-1.2818,-1.2948,-1.2909,-1.2914,-1.2919,-1.296,-1.2972,-1.2983,-1.2837,-1.2837,-1.2836,0,0,-1.2465,-1.2489,-1.2546,-1.2572,-1.261,-1.2621,-1.2634,-1.267,-1.2681,-1.2747,-1.2736,-1.2778,-1.2855,-1.2882,-1.2905,-1.2997,-1.2988,-1.3011,-1.3057,-1.3099,-1.3109,-1.3118,-1.3152,-1.3164,-1.3019,-1.3019,-1.3019,0,-1.2501,-1.2572,-1.2577,-1.2629,-1.2656,-1.2643,-1.2701,-1.2725,-1.2776,-1.2794,-1.2775,-1.2871,-1.2895,-1.2974,-1.2997,-1.3016,-1.3032,-1.3008,-1.3107,-1.3116,-1.3125,-1.3157,-1.317,-1.3021,-1.3021,-1.3021,-1.3021,0,-1.2615,-1.2664,-1.2706,-1.2754,-1.2785,-1.284,-1.2852,-1.2883,-1.2881,-1.2894,-1.2961,-1.2989,-1.3037,-1.3055,-1.3055,-1.3135,-1.3123,-1.3105,-1.3071,-1.314,-1.3171,-1.3183,-1.3025,-1.3024,-1.3023,-1.3023,0,0,-1.2723,-1.2772,-1.2787,-1.2809,-1.2849,-1.2887,-1.294,-1.2987,-1.3014,-1.3048,-1.3093,-1.3158,-1.3141,-1.3168,-1.3169,-1.3206,-1.3278,-1.3183,-1.3184,-1.3201,-1.3368,-1.3382,-1.3396,-1.327,-1.3273,-1.3275,-1.3365,0,-1.2811,-1.2906,-1.2911,-1.2997,-1.3043,-1.303,-1.3077,-1.3106,-1.3119,-1.3159,-1.3173,-1.3219,-1.3193,-1.3209,-1.3245,-1.3261,-1.3311,-1.3255,-1.3313,-1.3315,-1.3306,-1.3412,-1.3428,-1.3512,-1.3377,-1.3379,-1.338,0,-1.2928,-1.2966,-1.3057,-1.309,-1.3109,-1.3151,-1.3194,-1.3232,-1.3265,-1.3271,-1.33,-1.3297,-1.3351,-1.3313,-1.3388,-1.3349,-1.3373,-1.3384,-1.3388,-1.3395,-1.3353,-1.3423,-1.3539,-1.3552,-1.3399,-1.3397,-1.3396,0,-1.2999,-1.3072,-1.3136,-1.3154,-1.3194,-1.3224,-1.3242,-1.3272,-1.33,-1.3337,-1.3354,-1.3397,-1.3421,-1.3453,-1.3461,-1.3433,-1.3536,-1.3499,-1.3543,-1.3543,-1.3567,-1.3566,-1.3689,-1.358,-1.358,-1.3579,-1.3579,0,-1.3098,-1.3155,-1.3168,-1.3208,-1.327,-1.3274,-1.3335,-1.3351,-1.3378,-1.3419,-1.3411,-1.345,-1.3457,-1.3497,-1.3503,-1.3564,-1.3575,-1.3582,-1.3583,-1.3584,-1.3583,-1.3601,-1.3595,-1.3583,-1.3582,-1.3581,-1.3581,0,-1.3189,-1.32,-1.3269,-1.33,-1.3309,-1.3354,-1.3381,-1.3418,-1.3429,-1.3482,-1.3495,-1.3512,-1.356,-1.3569,-1.3626,-1.3629,-1.3702,-1.3697,-1.3692,-1.3692,-1.3736,-1.3732,-1.3876,-1.3895,-1.3772,-1.3773,-1.3774,0,-1.3252,-1.3295,-1.3331,-1.3359,-1.3378,-1.3422,-1.345,-1.3454,-1.3484,-1.3523,-1.3556,-1.3602,-1.364,-1.3715,-1.3733,-1.3775,-1.3772,-1.3819,-1.3778,-1.3777,-1.3774,-1.3772,-1.3776,-1.3828,-1.3829,-1.383,-1.3831,0,-1.3365,-1.3367,-1.3408,-1.345,-1.3483,-1.3517,-1.3549,-1.3571,-1.358,-1.3613,-1.3661,-1.369,-1.3747,-1.3793,-1.3835,-1.3853,-1.3844,-1.3843,-1.3856,-1.3858,-1.3854,-1.3858,-1.3715,-1.3841,-1.384,-1.3839,-1.3839,-1.3838,-1.3444,-1.3482,-1.3513,-1.3558,-1.3582,-1.3611,-1.3648,-1.3663,-1.3703,-1.375,-1.375,-1.3803,-1.3833,-1.3888,-1.3909,-1.395,-1.3935,-1.3953,-1.3958,-1.3963,-1.3967,-1.3846,-1.3957,-1.3957,-1.3957,-1.3956,-1.3956,0,-1.3557,-1.3576,-1.3617,-1.3662,-1.3697,-1.3684,-1.3718,-1.3748,-1.3795,-1.3823,-1.386,-1.3915,-1.3959,-1.3979,-1.4022,-1.4051,-1.4048,-1.4063,-1.4061,-1.4066,-1.3978,-1.3963,-1.4064,-1.4064,-1.4064,-1.4064,-1.4064,-1.4064,-1.362,-1.3683,-1.3689,-1.3763,-1.3781,-1.3833,-1.3854,-1.3881,-1.3904,-1.3965,-1.4002,-1.4014,-1.4039,-1.4084,-1.4124,-1.4128,-1.4145,-1.4162,-1.4165,-1.4083,-1.4072,-1.4061,-1.4048,-1.4165,-1.4166,-1.425,-1.425,-1.4251]},{"header":{"parameterUnit":"m.s-1","parameterCategory":1,"la1":30.2991,"la2":30.254,"lo1":-89.0895,"lo2":-89.0444,"dy":0.0017,"dx":0.0017,"nx":28,"ny":28,"refTime":"2024-11-28T03:00:00:Z","depth":0,"parameterNumber":3,"parameterNumberName":"V-component_of_WINDS"},"data":[0,0,0,0,0,0,0,0,0,0,0,0,0,0,0,0,0,0,0,0,0,0,0,0,0,0,0,0,0,0,0,0,0,0,0,0,0,0,0,0,0,0,0,0,0,0,0,0,0,0,0,0,0,0,0,0,0,0,-7.9854,-7.9856,0,-8.0003,-8.0005,-8.0006,-7.9932,-7.9928,-7.9924,-7.992,-8.0065,-8.0072,-8.0079,0,0,0,0,0,0,0,0,0,0,0,0,0,-7.9498,-7.9505,-7.9854,-7.9856,-7.9858,-8.0003,-8.0005,-8.0007,-7.9932,-7.9928,-7.9923,-7.9919,-8.0062,-8.0071,-8.008,0,0,0,0,0,0,0,0,0,0,0,0,0,-7.965,-7.9508,-7.9854,-7.9839,-7.9839,-8.0002,-8.0005,-8.0007,-7.9933,-7.9928,-7.9922,-7.9916,-8.0059,-8.007,-8.0081,-8.0266,0,0,-8.0115,-8.012,0,0,0,0,0,0,0,0,-7.9642,-7.9664,-7.9839,-7.984,-7.984,-7.9943,-7.9932,-8.0094,-7.9935,-7.9897,-7.992,-7.9914,-8.0028,-8.0042,-8.0082,-8.0273,-8.0279,-8.0116,-8.0123,-8.0128,-8.0131,0,0,0,0,0,0,0,-7.9631,-7.9657,-7.9913,-7.9842,-7.9843,-7.9822,-7.9837,-7.9962,-7.9993,-7.99,-7.9895,-7.9914,-8.0028,-8.0071,-8.0085,-8.0281,-8.0116,-8.0126,-8.0133,-8.0137,-8.0629,-8.0635,0,0,0,0,0,0,-7.9623,-7.9648,-7.9908,-7.9917,-7.9725,-7.9833,-7.985,-7.9916,-7.9992,-7.9998,-7.9919,-7.991,-8.0055,-8.0072,-8.009,-8.0311,-8.0128,-8.0138,-8.0145,-8.0623,-8.063,-8.0637,0,0,0,0,0,0,-7.9615,-7.9647,-7.9902,-7.9782,-7.9813,-7.9845,-7.992,-7.9922,-7.9966,-8.0006,-8.001,-7.9959,-8.0051,-8.0074,-8.0223,-8.0314,-8.0143,-8.0153,-8.0615,-8.0625,-8.0634,-8.0754,0,0,0,0,0,0,-7.9605,-7.9644,-7.9717,-7.9784,-7.9819,-8.0036,-7.9925,-7.9929,-7.9986,-7.9976,-8.0044,-8.005,-8.0049,-8.0207,-8.0234,-8.0327,-8.0162,-8.0607,-8.062,-8.0631,-8.0742,-8.0767,-8.0788,0,0,0,0,0,-7.9593,-7.9743,-7.9721,-7.9753,-7.9911,-8.0041,-8.0061,-8.0059,-7.9994,-8.0066,-8.0091,-8.0048,-8.03,-8.0223,-8.0253,-8.035,-8.0601,-8.0616,-8.063,-8.0732,-8.0762,-8.0787,0,0,0,0,0,0,-7.9683,-7.9752,-7.9728,-7.9905,-7.9968,-8.0028,-8.0119,-8.009,-8.0171,-8.0158,-8.0149,-8.0165,-8.032,-8.0349,-8.0262,-8.0532,-8.044,-8.0461,-8.0507,-8.0536,-8.0558,-8.0548,-8.0171,0,0,0,0,0,-7.9724,-7.9827,-7.988,-8.0031,-8.0064,-8.0087,-8.0143,-8.0136,-8.02,-8.0225,-8.0262,-8.0324,-8.0416,-8.0478,-8.0565,-8.0746,-8.0759,-8.0827,-8.085,-8.0869,-8.0887,-8.0983,-8.1014,-8.0684,-8.0684,-8.0684,0,0,-7.9809,-7.9859,-7.9924,-8.005,-8.0098,-8.0202,-8.0109,-8.0223,-8.03,-8.0242,-8.0386,-8.0415,-8.0482,-8.0648,-8.0722,-8.0677,-8.0981,-8.0887,-8.0901,-8.091,-8.1001,-8.1032,-8.106,-8.0694,-8.0692,-8.0691,0,0,-8.0017,-8.0066,-8.0197,-8.0247,-8.0323,-8.0337,-8.0368,-8.0433,-8.0451,-8.0596,-8.0554,-8.0643,-8.0804,-8.0854,-8.0901,-8.1128,-8.109,-8.1156,-8.1275,-8.1369,-8.1395,-8.1418,-8.1498,-8.1527,-8.1174,-8.1174,-8.1175,0,-8.0112,-8.027,-8.0267,-8.0385,-8.0441,-8.0396,-8.0527,-8.0575,-8.0674,-8.0713,-8.0661,-8.0862,-8.0905,-8.1081,-8.1137,-8.1176,-8.121,-8.1148,-8.1392,-8.1415,-8.1436,-8.1513,-8.1543,-8.1182,-8.1181,-8.118,-8.118,0,-8.0383,-8.0493,-8.0589,-8.0689,-8.0755,-8.0879,-8.0893,-8.096,-8.0947,-8.0965,-8.1112,-8.1162,-8.1259,-8.13,-8.1287,-8.1474,-8.1444,-8.1393,-8.13,-8.1475,-8.1547,-8.1576,-8.1193,-8.119,-8.1188,-8.1186,0,0,-8.0652,-8.0749,-8.0784,-8.0829,-8.0909,-8.0992,-8.1113,-8.121,-8.1268,-8.1337,-8.1437,-8.1574,-8.1527,-8.158,-8.1572,-8.1655,-8.1831,-8.1593,-8.1595,-8.1635,-8.2039,-8.2077,-8.2111,-8.1807,-8.1812,-8.1817,-8.2033,0,-8.0865,-8.108,-8.108,-8.1277,-8.1378,-8.1336,-8.1441,-8.15,-8.1521,-8.1606,-8.1627,-8.1725,-8.1656,-8.1688,-8.1768,-8.1793,-8.1912,-8.1777,-8.1897,-8.1902,-8.1882,-8.2149,-8.2189,-8.2392,-8.2061,-8.2066,-8.2069,0,-8.1142,-8.1224,-8.1432,-8.1497,-8.1539,-8.1634,-8.1723,-8.1807,-8.1871,-8.188,-8.194,-8.1919,-8.2039,-8.1944,-8.2108,-8.2017,-8.2065,-8.2085,-8.2092,-8.2103,-8.1996,-8.2166,-8.2456,-8.2486,-8.2113,-8.211,-8.2107,0,-8.1317,-8.1479,-8.1624,-8.1663,-8.1743,-8.181,-8.1846,-8.1905,-8.1964,-8.204,-8.2078,-8.2167,-8.2215,-8.2283,-8.2286,-8.2216,-8.2452,-8.2356,-8.246,-8.2461,-8.2512,-8.2508,-8.2813,-8.2544,-8.2544,-8.2543,-8.2542,0,-8.1555,-8.1684,-8.1704,-8.1793,-8.1935,-8.1934,-8.2073,-8.2102,-8.2156,-8.2248,-8.2216,-8.2303,-8.2302,-8.2389,-8.2392,-8.2527,-8.2549,-8.2557,-8.2557,-8.2561,-8.256,-8.2592,-8.2578,-8.2551,-8.2549,-8.2548,-8.2546,0,-8.1775,-8.1793,-8.1949,-8.2012,-8.2031,-8.2133,-8.2185,-8.2269,-8.2287,-8.2404,-8.2431,-8.2458,-8.2559,-8.2569,-8.2685,-8.2687,-8.285,-8.2834,-8.283,-8.2827,-8.293,-8.2921,-8.3267,-8.3311,-8.3014,-8.3016,-8.3019,0,-8.1925,-8.2024,-8.2098,-8.2159,-8.22,-8.2298,-8.2358,-8.2359,-8.2422,-8.2504,-8.2577,-8.2676,-8.2755,-8.2918,-8.2946,-8.3035,-8.3021,-8.3136,-8.3034,-8.3034,-8.3022,-8.3016,-8.3025,-8.3155,-8.3159,-8.3161,-8.3164,0,-8.2191,-8.2195,-8.2285,-8.2378,-8.2451,-8.2524,-8.2592,-8.2643,-8.2652,-8.2724,-8.2829,-8.2891,-8.3011,-8.3109,-8.3196,-8.3229,-8.3198,-8.3196,-8.3224,-8.3229,-8.3223,-8.3227,-8.2883,-8.3188,-8.3185,-8.3183,-8.3182,-8.3181,-8.238,-8.2466,-8.2532,-8.2632,-8.2684,-8.2748,-8.283,-8.2859,-8.2947,-8.3048,-8.3042,-8.3157,-8.3217,-8.3332,-8.3372,-8.346,-8.3421,-8.3463,-8.3474,-8.3484,-8.3494,-8.3209,-8.3476,-8.3475,-8.3475,-8.3474,-8.3474,0,-8.2643,-8.2684,-8.2777,-8.2874,-8.2953,-8.2919,-8.2992,-8.3059,-8.3162,-8.3223,-8.3302,-8.3422,-8.3516,-8.3552,-8.3644,-8.3707,-8.3695,-8.3731,-8.3726,-8.3734,-8.3524,-8.349,-8.374,-8.374,-8.374,-8.374,-8.374,-8.3739,-8.279,-8.2933,-8.2945,-8.3112,-8.3151,-8.3267,-8.3311,-8.3369,-8.3418,-8.3554,-8.3633,-8.3657,-8.3707,-8.3802,-8.3887,-8.3894,-8.3929,-8.3972,-8.3973,-8.3776,-8.3749,-8.3724,-8.3692,-8.3979,-8.398,-8.4176,-8.4178,-8.4179]}]]